Tracking 30160 objects as of 13-Feb-2025
HD Live streaming from Space Station
objects crossing your sky now

STARLINK-4375

Track STARLINK-4375 now!
10-day predictions
STARLINK-4375 is classified as:


NORAD ID: 53192
Int'l Code: 2022-084D
Perigee: 569.7 km
Apogee: 570.6 km
Inclination: 97.7 °
Period: 95.9 minutes
Semi major axis: 6941 km
RCS: Unknown
Launch date: July 22, 2022
Source: United States (US)
Launch site: AIR FORCE WESTERN TEST RANGE (AFWTR)
Your satellite tracking list
Your tracking list is empty




NASA's NSSDC Master Catalog

Two Line Element Set (TLE):
1 53192U 22084D   25044.12388870  .00000603  00000-0  51508-4 0  9990
2 53192  97.6582 107.5081 0000679  94.9087 265.2215 15.01260545141536
Source of the keplerian elements: AFSPC